This demonstration page uses our WeatherBlox Daily Observations layout. Learn more.

39.29038, -76.61219

Hourly Observations for July 16, 2015

Temp ( °F °C ) Dew Point ( °F °C ) Humidity (%) Winds ( mph kmh ) Pressure ( in mb ) Visibility ( mi km ) Precip ( " mm )
12:54 am 00:54 Mostly Cloudy 70 21 57 14 64 64 undefined N/A 29.94 1014 N/A 0 0
1:54 am 01:54 Cloudy 70 21 55 13 60 60 undefined N/A 29.94 1014 N/A 0 0
2:54 am 02:54 Mostly Cloudy 68 20 54 12 60 60 undefined N/A 29.97 1015 N/A 0 0
3:54 am 03:54 Mostly Cloudy 66 19 54 12 64 64 undefined N/A 29.97 1015 N/A 0 0
4:54 am 04:54 Clear 66 19 54 12 64 64 undefined N/A 30 1016 N/A 0 0
5:54 am 05:54 Mostly Sunny 66 19 54 12 64 64 undefined N/A 30 1016 N/A 0 0
6:54 am 06:54 Cloudy 66 19 52 11 60 60 undefined N/A 30.03 1017 N/A 0 0
7:54 am 07:54 Mostly Cloudy 66 19 52 11 60 60 undefined N/A 30.03 1017 N/A 0 0
8:54 am 08:54 Mostly Cloudy 70 21 52 11 53 53 undefined N/A 30.06 1018 N/A 0 0
9:54 am 09:54 undefined 72 22 50 10 47 47 undefined N/A 30.06 1018 N/A 0 0
10:54 am 10:54 Mostly Sunny 73 23 52 11 47 47 undefined N/A 30.06 1018 N/A 0 0
11:54 am 11:54 Cloudy 75 24 52 11 44 44 undefined N/A 30.06 1018 N/A 0 0
12:54 pm 12:54 Mostly Sunny 77 25 54 12 44 44 undefined N/A 30.06 1018 N/A 0 0
1:54 pm 13:54 Mostly Sunny 79 26 55 13 45 45 undefined N/A 30.06 1018 N/A 0 0
2:54 pm 14:54 undefined 81 27 57 14 45 45 undefined N/A 30.03 1017 N/A 0 0
3:54 pm 15:54 undefined 79 26 59 15 51 51 undefined N/A 30.03 1017 N/A 0 0
4:54 pm 16:54 Cloudy 81 27 57 14 45 45 undefined N/A 30.03 1017 N/A 0 0
5:54 pm 17:54 undefined 79 26 59 15 51 51 undefined N/A 30.03 1017 N/A 0 0
6:54 pm 18:54 Mostly Cloudy 79 26 59 15 51 51 undefined N/A 30.03 1017 N/A 0 0
7:54 pm 19:54 Mostly Cloudy 79 26 59 15 51 51 undefined N/A 30.03 1017 N/A 0 0
8:54 pm 20:54 Partly Cloudy 77 25 57 14 51 51 undefined N/A 30.06 1018 N/A 0 0
9:54 pm 21:54 undefined 77 25 57 14 51 51 undefined N/A 30.06 1018 N/A 0 0
10:54 pm 22:54 undefined 75 24 59 15 57 57 undefined N/A 30.06 1018 N/A 0 0
11:54 pm 23:54 Cloudy 73 23 61 16 65 65 undefined N/A 30.06 1018 N/A 0 0

Powered by AerisWeather